Volver al catálogo

STARLINK-30324

ActivoComunicacionesVLEO
NORAD 57640·PAYLOAD·🇺🇸 United States

Lanzado Aug 17, 2023 desde Cape Canaveral Space Force Station

Loading…

Próximos Pases (próximas 24 horas)

TLE

ActualizadoSource: CelesTrak SupGP

Época: Sep 15, 2026, 01:57 UTC

1 57640C 23122J   26258.08173611  .00115570  00000+0  41922-2 0  2588
2 57640  43.0009 103.1603 0001889 271.1731 287.3228 15.27470640    11

Sigue STARLINK-30324 en tiempo real con AllMySat

Download on the App Store